Location: Caltech
(34.1382°N, 118.1253°W)
Time: 15:51:53
(UTC-07:00)

Uosat F - Visible Passes

Search period start: 30 October 2014 00:00
Search period end: 08 November 2014 23:00
Orbit: 752 x 761 km, 98.7° (Epoch: 30 October)

Date Brightness Start Highest point End Pass type
(mag) Time Alt. Az. Time Alt. Az. Time Alt. Az.
30 Oct 14.0 04:06:40 10° ENE 04:08:53 13° E 04:11:05 10° ESE visible
30 Oct 11.1 05:43:01 10° N 05:47:58 58° WNW 05:52:53 10° SSW visible
31 Oct 11.7 05:03:54 10° NNE 05:08:51 55° E 05:13:46 10° S visible
31 Oct 12.6 06:44:21 10° NNW 06:47:08 15° WNW 06:49:54 10° W visible
01 Nov 13.4 04:25:44 10° NE 04:29:32 21° E 04:33:18 10° SE visible
01 Nov 11.6 06:03:46 10° N 06:08:21 36° WNW 06:12:54 10° SW visible
02 Nov 11.0 04:24:16 10° NNE 04:29:21 89° ESE 04:34:22 10° SSW visible
03 Nov 12.6 03:45:33 10° NNE 03:50:07 34° E 03:54:40 10° SSE visible
03 Nov 12.1 05:24:46 10° NNW 05:28:40 23° WNW 05:32:32 10° WSW visible
04 Nov 14.0 03:08:21 10° ENE 03:10:42 13° E 03:13:01 10° ESE visible
04 Nov 11.1 04:44:50 10° N 04:49:46 56° WNW 04:54:40 10° SSW visible
05 Nov 11.7 04:05:42 10° NNE 04:10:39 56° E 04:15:34 10° S visible
05 Nov 12.6 05:46:14 10° NNW 05:48:55 15° WNW 05:51:35 10° W visible
06 Nov 13.3 03:27:29 10° NE 03:31:20 22° E 03:35:09 10° SE visible
06 Nov 11.6 05:05:35 10° N 05:10:08 35° WNW 05:14:39 10° SW visible
07 Nov 11.0 04:26:04 10° NNE 04:31:08 89° WNW 04:36:09 10° SSW visible
08 Nov 12.5 03:47:19 10° NNE 03:51:55 35° E 03:56:28 10° SSE visible
08 Nov 12.2 05:26:36 10° NNW 05:30:26 22° WNW 05:34:15 10° WSW visible
